SCP
0 0 0 0 0 0 0 0 0 0 0 0 0 0 0 0 0 0 0 0 0 1 0 0 0 0 0 0 0 0 0 0
0 0 0 0 0 0 0 0 0 0 0 0 0 0 0 0 0 0 0 0 0 1 1 1 1 0 0 0 0 0 0 0
0 0 0 0 0 0 0 0 0 0 0 0 0 0 0 0 0 0 0 0 0 1 1 1 1 1 1 1 1 1 1 0
0 0 0 0 0 0 0 0 0 0 0 0 0 0 0 0 0 0 0 0 0 1 1 1 1 1 1 1 1 1 1 1
0 0 0 0 0 0 0 0 0 0 0 0 0 0 0 0 0 0 0 0 0 1 1 1 1 1 1 1 2 2 2 1
0 0 0 0 0 0 0 0 0 0 0 0 0 0 0 0 0 0 0 0 0 1 1 1 1 2 2 2 2 2 2 1
0 0 0 0 0 0 0 0 0 0 0 0 0 0 0 0 0 0 0 0 0 0 1 1 1 1 2 1 1 2 1 1
0 0 0 0 0 0 0 0 0 0 0 0 0 0 0 0 0 0 0 0 0 0 1 1 1 1 1 1 1 1 1 1
0 0 0 0 0 0 0 0 0 0 0 0 0 0 0 0 0 0 0 0 0 1 1 1 1 1 0 0 0 1 1 1
0 0 0 0 0 0 0 0 0 0 0 0 0 0 0 0 0 0 0 0 0 0 1 1 0 0 0 0 0 0 0 0
0 0 0 0 0 0 0 0 0 0 0 0 0 0 0 0 0 0 0 0 0 0 0 0 0 0 0 0 0 0 0 0
0 0 0 0 0 0 0 0 0 0 0 0 0 0 0 0 0 0 0 0 0 0 0 0 0 0 0 0 0 0 0 0
0 0 0 0 0 0 0 0 0 0 0 0 0 0 0 0 0 0 0 0 0 0 0 0 0 0 0 0 0 0 0 0
0 0 0 0 0 0 0 0 0 0 0 0 0 0 0 0 0 0 0 0 0 0 0 0 0 0 0 0 0 0 0 0
0 0 0 0 0 0 0 0 0 0 0 0 0 0 0 0 0 0 0 0 0 0 0 0 0 0 0 0 0 0 0 0
0 0 0 0 0 0 0 0 0 0 0 0 -0 -0 0 0 0 0 0 0 0 0 0 0 0 0 0 0 0 0 0 0
0 0 0 0 0 0 0 0 -0 0 -0 0 0 0 0 0 0 0 0 0 0 0 0 0 0 0 0 0 0 0 0 0
0 0 0 0 0 -0 0 -0 -0 0 -0 0 0 0 0 0 0 0 0 0 0 0 0 0 0 0 1 0 0 0 0 0
0 0 0 0 0 -0 -0 -0 -0 0 0 0 0 0 0 0 0 0 0 0 0 0 0 0 0 0 0 0 0 0 0 0
0 0 0 0 -0 -0 -0 0 0 0 0 0 0 0 0 0 0 0 0 0 0 0 0 0 0 0 0 0 0 0 0 0
Wind_Speed_500mb
5 6 12 6 16 6 13 23 8 6 11 9 8 17 12 20 29 23 29 26 31 33 32 27 25 23 17 13 14 16 20 23
9 22 14 9 8 5 22 9 5 7 13 11 24 12 14 18 25 22 25 25 30 30 30 30 30 29 23 17 16 18 22 22
8 16 13 17 30 15 11 8 12 9 8 11 25 27 22 21 26 24 22 24 31 33 33 33 35 33 28 23 19 20 24 25
16 21 18 17 25 11 14 6 6 9 10 13 24 29 30 24 26 26 22 20 31 34 35 36 38 36 31 27 24 25 28 26
13 17 16 12 7 11 10 5 7 12 6 12 29 27 30 27 31 31 32 27 29 34 36 39 39 37 33 30 27 29 32 28
12 12 14 10 6 14 4 3 19 1 6 14 39 39 39 35 41 41 40 38 36 34 40 44 43 39 36 30 29 34 37 35
16 15 13 7 10 4 8 18 16 23 24 27 37 50 42 42 52 52 52 50 45 44 47 49 46 40 35 30 34 39 40 40
21 21 17 6 11 16 14 29 50 28 26 30 45 51 41 46 64 65 62 61 54 51 52 54 51 42 37 33 36 40 40 40
42 29 17 28 30 24 32 35 53 35 50 55 57 58 52 52 65 78 65 67 61 54 55 56 53 44 39 35 35 38 38 34
62 38 28 33 28 32 41 68 71 55 50 60 61 66 67 61 66 72 80 71 64 56 58 57 51 46 39 34 35 36 32 27
51 54 48 52 51 45 62 71 74 60 58 60 68 70 70 66 61 73 87 79 68 61 60 57 52 46 38 32 36 33 28 28
55 49 60 49 58 32 54 64 77 66 65 67 61 66 67 64 61 71 84 89 67 65 58 56 50 43 34 36 34 29 27 27
31 44 36 43 37 36 61 63 54 58 67 67 72 64 62 60 61 62 83 88 70 63 57 54 48 38 38 35 31 27 26 28
24 35 26 23 43 36 57 42 50 57 56 61 59 66 69 66 68 70 77 84 65 65 58 52 45 38 37 34 28 26 27 29
24 23 23 27 34 25 34 35 47 60 62 65 70 70 61 66 63 65 73 65 66 64 57 49 41 38 34 30 26 25 27 30
27 20 19 29 37 33 54 39 50 58 56 56 57 74 68 55 50 52 57 53 58 63 54 47 40 35 30 25 23 24 28 30
33 14 17 33 34 40 50 42 47 54 55 60 66 66 57 39 31 33 41 50 58 64 54 45 39 29 25 22 22 25 25 26
29 24 13 32 40 36 36 43 45 53 56 55 52 51 40 29 25 29 36 50 60 59 48 37 29 22 20 18 21 22 23 22
39 9 17 19 43 39 29 29 44 48 47 46 42 31 24 21 19 27 40 55 61 51 38 30 24 21 16 16 19 16 13 13
35 16 24 5 33 38 35 40 31 42 34 25 19 15 15 16 21 29 45 59 53 42 32 27 24 17 12 14 7 6 10 10
Wind_Direction_500mb
216 203 220 219 207 227 313 318 254 256 221 195 226 227 223 199 196 184 181 188 188 192 196 200 208 217 226 254 280 298 306 302
237 235 242 236 203 297 326 0 336 258 264 245 255 260 240 224 199 189 180 189 192 195 201 206 213 218 224 245 264 297 305 305
248 251 257 248 267 257 282 273 306 210 255 259 270 254 246 234 209 199 188 196 198 204 209 214 221 222 227 244 262 283 299 305
243 246 252 262 254 227 242 243 298 187 254 261 291 279 256 232 210 205 206 205 202 207 213 218 226 227 233 248 264 280 295 296
261 265 269 245 197 192 181 353 51 303 250 284 316 310 269 239 215 215 212 213 210 213 215 221 229 233 238 251 268 283 292 287
240 255 269 197 194 161 42 355 327 121 253 304 313 317 305 242 216 216 221 218 220 222 219 222 226 231 239 254 272 283 289 283
239 215 246 208 222 90 331 296 286 261 259 292 310 306 294 246 224 221 226 224 221 224 224 224 227 232 239 254 270 284 287 279
236 238 259 279 307 317 290 298 288 273 281 304 306 307 289 255 241 231 232 230 225 227 228 225 225 230 239 252 267 285 283 274
261 253 266 281 280 293 292 290 282 294 302 307 304 303 298 274 257 250 240 233 228 229 229 227 227 230 240 251 273 281 275 267
252 268 277 275 294 274 275 269 280 291 287 295 300 299 302 291 270 255 241 238 232 230 231 229 229 233 239 256 275 277 274 263
250 267 266 275 270 268 284 281 282 283 285 285 289 294 297 294 278 259 246 241 233 231 231 230 230 233 241 262 273 274 274 268
252 262 270 267 268 278 268 277 281 285 280 281 282 290 293 287 283 265 252 246 233 229 231 230 231 232 247 263 271 275 273 272
240 247 255 271 271 256 269 272 278 277 282 281 282 281 281 288 287 282 258 247 236 229 230 229 227 231 249 264 268 272 270 271
229 232 246 218 269 277 272 277 282 284 282 282 283 286 286 284 282 277 262 247 236 228 226 223 219 233 251 261 267 270 271 271
236 229 245 214 274 257 273 287 287 284 284 282 283 286 285 292 281 275 266 246 233 224 220 214 215 234 251 258 266 269 271 271
233 228 224 239 254 274 283 286 281 284 287 284 280 286 296 291 277 268 259 241 229 217 205 200 217 235 247 255 262 274 275 272
234 228 245 250 268 278 286 289 283 284 282 278 282 289 295 278 267 259 241 223 214 200 192 201 219 230 239 251 268 280 273 274
248 259 247 279 280 280 284 284 285 285 278 272 281 289 282 273 257 237 226 212 193 185 191 203 214 220 230 252 273 281 278 281
244 256 245 289 281 276 280 285 293 285 271 279 279 279 262 257 236 217 203 188 177 179 189 201 203 211 231 270 289 286 278 279
240 234 255 240 284 278 290 287 285 284 278 278 295 295 263 234 214 195 180 173 172 178 188 193 199 209 246 282 282 277 287 277
Wind_Speed_850mb
5 6 12 6 16 6 13 23 8 6 11 9 8 17 12 20 29 23 29 26 31 33 32 27 25 23 17 13 14 16 20 23
9 22 14 9 8 5 22 9 5 7 13 11 24 12 14 18 25 22 25 25 30 30 30 30 30 29 23 17 16 18 22 22
8 16 13 17 30 15 11 8 12 9 8 11 25 27 22 21 26 24 22 24 31 33 33 33 35 33 28 23 19 20 24 25
16 21 18 17 25 11 14 6 6 9 10 13 24 29 30 24 26 26 22 20 31 34 35 36 38 36 31 27 24 25 28 26
13 17 16 12 7 11 10 5 7 12 6 12 29 27 30 27 31 31 32 27 29 34 36 39 39 37 33 30 27 29 32 28
12 12 14 10 6 14 4 3 19 1 6 14 39 39 39 35 41 41 40 38 36 34 40 44 43 39 36 30 29 34 37 35
16 15 13 7 10 4 8 18 16 23 24 27 37 50 42 42 52 52 52 50 45 44 47 49 46 40 35 30 34 39 40 40
21 21 17 6 11 16 14 29 50 28 26 30 45 51 41 46 64 65 62 61 54 51 52 54 51 42 37 33 36 40 40 40
42 29 17 28 30 24 32 35 53 35 50 55 57 58 52 52 65 78 65 67 61 54 55 56 53 44 39 35 35 38 38 34
62 38 28 33 28 32 41 68 71 55 50 60 61 66 67 61 66 72 80 71 64 56 58 57 51 46 39 34 35 36 32 27
51 54 48 52 51 45 62 71 74 60 58 60 68 70 70 66 61 73 87 79 68 61 60 57 52 46 38 32 36 33 28 28
55 49 60 49 58 32 54 64 77 66 65 67 61 66 67 64 61 71 84 89 67 65 58 56 50 43 34 36 34 29 27 27
31 44 36 43 37 36 61 63 54 58 67 67 72 64 62 60 61 62 83 88 70 63 57 54 48 38 38 35 31 27 26 28
24 35 26 23 43 36 57 42 50 57 56 61 59 66 69 66 68 70 77 84 65 65 58 52 45 38 37 34 28 26 27 29
24 23 23 27 34 25 34 35 47 60 62 65 70 70 61 66 63 65 73 65 66 64 57 49 41 38 34 30 26 25 27 30
27 20 19 29 37 33 54 39 50 58 56 56 57 74 68 55 50 52 57 53 58 63 54 47 40 35 30 25 23 24 28 30
33 14 17 33 34 40 50 42 47 54 55 60 66 66 57 39 31 33 41 50 58 64 54 45 39 29 25 22 22 25 25 26
29 24 13 32 40 36 36 43 45 53 56 55 52 51 40 29 25 29 36 50 60 59 48 37 29 22 20 18 21 22 23 22
39 9 17 19 43 39 29 29 44 48 47 46 42 31 24 21 19 27 40 55 61 51 38 30 24 21 16 16 19 16 13 13
35 16 24 5 33 38 35 40 31 42 34 25 19 15 15 16 21 29 45 59 53 42 32 27 24 17 12 14 7 6 10 10
Wind_Direction_850mb
216 203 220 219 207 227 313 318 254 256 221 195 226 227 223 199 196 184 181 188 188 192 196 200 208 217 226 254 280 298 306 302
237 235 242 236 203 297 326 0 336 258 264 245 255 260 240 224 199 189 180 189 192 195 201 206 213 218 224 245 264 297 305 305
248 251 257 248 267 257 282 273 306 210 255 259 270 254 246 234 209 199 188 196 198 204 209 214 221 222 227 244 262 283 299 305
243 246 252 262 254 227 242 243 298 187 254 261 291 279 256 232 210 205 206 205 202 207 213 218 226 227 233 248 264 280 295 296
261 265 269 245 197 192 181 353 51 303 250 284 316 310 269 239 215 215 212 213 210 213 215 221 229 233 238 251 268 283 292 287
240 255 269 197 194 161 42 355 327 121 253 304 313 317 305 242 216 216 221 218 220 222 219 222 226 231 239 254 272 283 289 283
239 215 246 208 222 90 331 296 286 261 259 292 310 306 294 246 224 221 226 224 221 224 224 224 227 232 239 254 270 284 287 279
236 238 259 279 307 317 290 298 288 273 281 304 306 307 289 255 241 231 232 230 225 227 228 225 225 230 239 252 267 285 283 274
261 253 266 281 280 293 292 290 282 294 302 307 304 303 298 274 257 250 240 233 228 229 229 227 227 230 240 251 273 281 275 267
252 268 277 275 294 274 275 269 280 291 287 295 300 299 302 291 270 255 241 238 232 230 231 229 229 233 239 256 275 277 274 263
250 267 266 275 270 268 284 281 282 283 285 285 289 294 297 294 278 259 246 241 233 231 231 230 230 233 241 262 273 274 274 268
252 262 270 267 268 278 268 277 281 285 280 281 282 290 293 287 283 265 252 246 233 229 231 230 231 232 247 263 271 275 273 272
240 247 255 271 271 256 269 272 278 277 282 281 282 281 281 288 287 282 258 247 236 229 230 229 227 231 249 264 268 272 270 271
229 232 246 218 269 277 272 277 282 284 282 282 283 286 286 284 282 277 262 247 236 228 226 223 219 233 251 261 267 270 271 271
236 229 245 214 274 257 273 287 287 284 284 282 283 286 285 292 281 275 266 246 233 224 220 214 215 234 251 258 266 269 271 271
233 228 224 239 254 274 283 286 281 284 287 284 280 286 296 291 277 268 259 241 229 217 205 200 217 235 247 255 262 274 275 272
234 228 245 250 268 278 286 289 283 284 282 278 282 289 295 278 267 259 241 223 214 200 192 201 219 230 239 251 268 280 273 274
248 259 247 279 280 280 284 284 285 285 278 272 281 289 282 273 257 237 226 212 193 185 191 203 214 220 230 252 273 281 278 281
244 256 245 289 281 276 280 285 293 285 271 279 279 279 262 257 236 217 203 188 177 179 189 201 203 211 231 270 289 286 278 279
240 234 255 240 284 278 290 287 285 284 278 278 295 295 263 234 214 195 180 173 172 178 188 193 199 209 246 282 282 277 287 277